�������l�o���
Date,Time,MP-1(��Sv/h),MP-2(��Sv/h),MP-3(��Sv/h),MP-4(��Sv/h),MP-5(��Sv/h),MP-6(��Sv/h),MP-7(��Sv/h),MP-8(��Sv/h),����,����(m/s),���J
2020/05/12,00:00,0.713,1.025,0.675,1.251,0.897,0.407,0.704,0.663,�k�k��,0.9,��
2020/05/12,00:10,0.713,1.026,0.676,1.251,0.896,0.407,0.708,0.662,�k,1.7,��
2020/05/12,00:20,0.715,1.025,0.676,1.248,0.897,0.405,0.706,0.663,�k��,2.6,��
2020/05/12,00:30,0.714,1.027,0.675,1.250,0.898,0.405,0.706,0.664,�k��,3.8,��
2020/05/12,00:40,0.713,1.026,0.676,1.250,0.896,0.405,0.706,0.663,�k�k��,3.8,��
2020/05/12,00:50,0.714,1.026,0.674,1.253,0.897,0.405,0.705,0.662,�k�k��,3.9,��
2020/05/12,01:00,0.714,1.023,0.676,1.249,0.897,0.406,0.706,0.663,�k��,4.4,��
2020/05/12,01:10,0.714,1.025,0.674,1.252,0.895,0.405,0.706,0.662,�k��,4.8,��
2020/05/12,01:20,0.714,1.027,0.676,1.250,0.898,0.406,0.704,0.663,�k��,4.4,��
2020/05/12,01:30,0.713,1.028,0.675,1.251,0.899,0.405,0.704,0.664,�k��,4.1,��
2020/05/12,01:40,0.713,1.027,0.677,1.249,0.896,0.405,0.706,0.662,�k��,3.9,��
2020/05/12,01:50,0.714,1.025,0.674,1.252,0.896,0.405,0.705,0.662,�k��,4.1,��
2020/05/12,02:00,0.713,1.026,0.678,1.250,0.896,0.404,0.704,0.661,�k��,4.4,��
2020/05/12,02:10,0.713,1.025,0.676,1.251,0.898,0.406,0.705,0.663,�k��,4.8,��
2020/05/12,02:20,0.713,1.026,0.675,1.251,0.897,0.404,0.706,0.663,�k��,5.1,��
2020/05/12,02:30,0.712,1.024,0.675,1.250,0.896,0.405,0.705,0.663,�k��,5.7,��
2020/05/12,02:40,0.712,1.027,0.676,1.250,0.897,0.404,0.706,0.663,���k��,5.8,��
2020/05/12,02:50,0.714,1.025,0.676,1.253,0.897,0.404,0.706,0.663,���k��,5.3,��
2020/05/12,03:00,0.713,1.026,0.675,1.249,0.895,0.405,0.706,0.664,�k��,4.2,��
2020/05/12,03:10,0.712,1.026,0.674,1.251,0.896,0.406,0.705,0.664,�k��,5.6,��
2020/05/12,03:20,0.712,1.025,0.674,1.251,0.896,0.404,0.705,0.663,�k�k��,5.6,��
2020/05/12,03:30,0.711,1.025,0.674,1.249,0.895,0.404,0.707,0.663,�k�k��,4.5,��
2020/05/12,03:40,0.711,1.024,0.676,1.255,0.894,0.404,0.706,0.663,�k�k��,4.1,��
2020/05/12,03:50,0.711,1.025,0.675,1.251,0.898,0.404,0.704,0.664,�k��,4.0,��
2020/05/12,04:00,0.712,1.026,0.676,1.253,0.896,0.405,0.705,0.662,�k��,4.9,��
2020/05/12,04:10,0.711,1.024,0.676,1.251,0.897,0.403,0.704,0.664,�k��,5.1,��
2020/05/12,04:20,0.713,1.024,0.675,1.251,0.896,0.404,0.705,0.662,�k��,4.9,��
2020/05/12,04:30,0.711,1.025,0.677,1.249,0.898,0.403,0.706,0.664,�k��,5.1,��
2020/05/12,04:40,0.713,1.026,0.675,1.251,0.896,0.404,0.706,0.663,�k��,4.9,��
2020/05/12,04:50,0.712,1.025,0.674,1.253,0.896,0.402,0.705,0.662,���k��,3.7,��
2020/05/12,05:00,0.713,1.023,0.676,1.251,0.896,0.405,0.706,0.662,���k��,2.6,��
2020/05/12,05:10,0.712,1.025,0.674,1.254,0.896,0.404,0.704,0.660,���k��,2.0,��
2020/05/12,05:20,0.712,1.025,0.676,1.252,0.895,0.404,0.706,0.664,��,2.0,��
2020/05/12,05:30,0.711,1.025,0.674,1.250,0.894,0.403,0.705,0.661,���쐼,3.0,��
2020/05/12,05:40,0.711,1.026,0.677,1.252,0.897,0.403,0.705,0.663,���쐼,2.0,��
2020/05/12,05:50,0.713,1.026,0.675,1.251,0.894,0.403,0.705,0.663,��,2.0,��
2020/05/12,06:00,0.711,1.024,0.675,1.252,0.895,0.405,0.705,0.663,��,1.1,��
2020/05/12,06:10,0.713,1.028,0.677,1.253,0.898,0.402,0.705,0.664,��,1.5,��
2020/05/12,06:20,0.715,1.025,0.676,1.250,0.899,0.404,0.707,0.665,���쐼,0.9,��
2020/05/12,06:30,0.714,1.027,0.675,1.252,0.899,0.404,0.705,0.665,��,1.1,��
2020/05/12,06:40,0.713,1.023,0.677,1.252,0.897,0.405,0.706,0.664,��쓌,1.5,��
2020/05/12,06:50,0.711,1.025,0.676,1.251,0.896,0.402,0.707,0.663,��쓌,2.2,��
2020/05/12,07:00,0.713,1.024,0.675,1.254,0.898,0.402,0.705,0.662,��쓌,2.2,��
2020/05/12,07:10,0.714,1.024,0.678,1.253,0.900,0.401,0.705,0.665,���쓌,2.0,��
2020/05/12,07:20,0.714,1.025,0.677,1.256,0.898,0.401,0.706,0.665,��,4.4,��
2020/05/12,07:30,0.714,1.024,0.675,1.252,0.898,0.401,0.706,0.663,��,3.8,��
2020/05/12,07:40,0.713,1.027,0.676,1.251,0.896,0.402,0.705,0.663,��,2.6,��
2020/05/12,07:50,0.712,1.027,0.676,1.252,0.897,0.399,0.704,0.663,��,2.5,��
2020/05/12,08:00,0.713,1.026,0.674,1.252,0.898,0.401,0.704,0.662,���k��,2.0,��
2020/05/12,08:10,0.712,1.024,0.675,1.253,0.896,0.402,0.704,0.660,���k��,1.5,��
2020/05/12,08:20,0.712,1.025,0.675,1.254,0.895,0.403,0.704,0.661,�k�k��,1.9,��
2020/05/12,08:30,0.713,1.022,0.675,1.255,0.896,0.401,0.705,0.661,�k,0.8,��
2020/05/12,08:40,0.711,1.023,0.674,1.256,0.896,0.403,0.706,0.660,�쐼,0.9,��
2020/05/12,08:50,0.711,1.023,0.676,1.253,0.897,0.402,0.703,0.661,��쓌,1.5,��
2020/05/12,09:00,0.712,1.024,0.673,1.252,0.897,0.402,0.704,0.663,�쓌,2.6,��
2020/05/12,09:10,0.710,1.025,0.675,1.254,0.895,0.401,0.704,0.661,��쓌,2.6,��
2020/05/12,09:20,0.712,1.022,0.673,1.253,0.897,0.402,0.703,0.661,�쓌,4.5,��
2020/05/12,09:30,0.712,1.020,0.675,1.252,0.897,0.402,0.704,0.661,�쓌,4.2,��
2020/05/12,09:40,0.713,1.021,0.673,1.251,0.896,0.402,0.704,0.661,�쓌,4.3,��
2020/05/12,09:50,0.713,1.021,0.675,1.251,0.897,0.403,0.705,0.662,�쓌,3.7,��
2020/05/12,10:00,0.714,1.023,0.674,1.254,0.897,0.402,0.706,0.659,�쓌,3.7,��
2020/05/12,10:10,0.714,1.024,0.674,1.253,0.899,0.403,0.705,0.659,�쓌,4.1,��
2020/05/12,10:20,0.712,1.020,0.675,1.254,0.896,0.403,0.705,0.663,�쓌,2.8,��
2020/05/12,10:30,0.714,1.023,0.674,1.256,0.898,0.403,0.705,0.661,���쓌,1.5,��
2020/05/12,10:40,0.714,1.024,0.672,1.253,0.897,0.403,0.706,0.658,���k��,1.2,��
2020/05/12,10:50,0.715,1.028,0.677,1.254,0.898,0.403,0.707,0.659,�k�k��,1.5,��
2020/05/12,11:00,0.714,1.022,0.676,1.253,0.899,0.405,0.706,0.661,�k�k��,1.5,��
2020/05/12,11:10,0.686,1.025,0.676,1.253,0.899,0.404,0.706,0.662,���k��,1.5,��
2020/05/12,11:20,0.717,1.013,0.677,1.252,0.900,0.404,0.707,0.662,��,1.7,��
2020/05/12,11:30,0.718,1.014,0.675,1.253,0.900,0.403,0.708,0.661,�k,0.8,��
2020/05/12,11:40,0.716,1.027,0.676,1.249,0.899,0.404,0.706,0.662,�k��,1.2,��
2020/05/12,11:50,0.715,1.030,0.676,1.253,0.900,0.404,0.706,0.662,���k��,1.5,��
2020/05/12,12:00,0.717,1.028,0.676,1.251,0.900,0.405,0.707,0.663,�k��,1.2,��
2020/05/12,12:10,0.717,1.031,0.675,1.254,0.902,0.404,0.707,0.662,�k��,2.0,��
2020/05/12,12:20,0.717,1.032,0.676,1.253,0.900,0.404,0.707,0.663,�k��,2.0,��
2020/05/12,12:30,0.717,1.031,0.675,1.254,0.898,0.403,0.706,0.662,�k��,2.0,��
2020/05/12,12:40,0.716,1.029,0.676,1.254,0.901,0.403,0.705,0.662,���k��,2.0,�L
2020/05/12,12:50,0.717,1.030,0.676,1.254,0.901,0.404,0.706,0.662,���k��,2.3,��
2020/05/12,13:00,0.717,1.029,0.677,1.252,0.898,0.405,0.705,0.660,��,2.0,�L
2020/05/12,13:10,0.716,1.027,0.680,1.256,0.900,0.403,0.705,0.661,���쓌,2.8,�L
2020/05/12,13:20,0.718,1.031,0.653,1.256,0.900,0.404,0.705,0.661,��,2.2,�L
2020/05/12,13:30,0.713,1.028,0.678,1.219,0.903,0.404,0.706,0.662,��,1.5,�L
2020/05/12,13:40,0.714,1.029,0.677,1.261,0.897,0.403,0.705,0.661,���k��,2.9,�L
2020/05/12,13:50,0.715,1.028,0.679,1.262,0.894,0.403,0.704,0.661,���k��,3.1,�L
2020/05/12,14:00,0.715,1.026,0.680,1.260,0.899,0.392,0.704,0.661,���k��,2.5,�L
2020/05/12,14:10,0.714,1.028,0.679,1.261,0.898,0.403,0.703,0.658,���k��,1.7,�L
2020/05/12,14:20,0.714,1.028,0.679,1.259,0.899,0.404,0.705,0.660,�k,1.1,�L
2020/05/12,14:30,0.715,1.029,0.681,1.260,0.897,0.405,0.704,0.661,�k�k��,1.5,�L
2020/05/12,14:40,0.715,1.028,0.681,1.260,0.896,0.405,0.703,0.662,�k�k��,2.0,�L
2020/05/12,14:50,0.716,1.029,0.679,1.261,0.896,0.404,0.702,0.662,�k,1.2,�L
2020/05/12,15:00,0.715,1.028,0.680,1.257,0.890,0.406,0.703,0.663,���k��,0.8,�L
2020/05/12,15:10,0.714,1.025,0.678,1.257,0.889,0.405,0.703,0.661,���k��,1.5,�L
2020/05/12,15:20,0.712,1.022,0.677,1.254,0.887,0.403,0.703,0.662,���k��,2.3,�L
2020/05/12,15:30,0.715,1.019,0.677,1.255,0.887,0.404,0.701,0.660,�k��,2.3,�L
2020/05/12,15:40,0.715,1.019,0.676,1.253,0.885,0.401,0.703,0.662,�k��,2.6,�L
2020/05/12,15:50,0.714,1.022,0.675,1.255,0.886,0.405,0.702,0.661,�k�k��,2.6,�L
2020/05/12,16:00,0.713,1.022,0.676,1.251,0.884,0.402,0.703,0.662,�k,2.2,��
2020/05/12,16:10,0.715,1.019,0.676,1.252,0.885,0.402,0.702,0.661,�k�k��,1.2,��
2020/05/12,16:20,0.716,1.022,0.675,1.254,0.886,0.403,0.704,0.662,�k��,2.0,�L
2020/05/12,16:30,0.714,1.021,0.675,1.254,0.887,0.402,0.704,0.662,�k��,2.2,�L
2020/05/12,16:40,0.714,1.018,0.673,1.251,0.886,0.402,0.702,0.663,�k�k��,2.5,�L
2020/05/12,16:50,0.714,1.019,0.674,1.250,0.886,0.403,0.701,0.661,�k��,3.7,��
2020/05/12,17:00,0.712,1.019,0.675,1.254,0.883,0.400,0.702,0.662,���k��,3.4,��
2020/05/12,17:10,0.713,1.019,0.676,1.255,0.882,0.401,0.701,0.663,���k��,4.4,��
2020/05/12,17:20,0.714,1.020,0.675,1.251,0.884,0.402,0.701,0.663,�k��,3.9,��
2020/05/12,17:30,0.713,1.021,0.674,1.252,0.883,0.402,0.702,0.662,�k��,2.6,�L
2020/05/12,17:40,0.713,1.019,0.675,1.251,0.886,0.401,0.703,0.661,�k�k��,2.3,�L
2020/05/12,17:50,0.714,1.021,0.673,1.251,0.883,0.401,0.704,0.661,�k�k��,2.8,�L
2020/05/12,18:00,0.713,1.020,0.674,1.254,0.886,0.400,0.701,0.661,�k�k��,2.3,�L
2020/05/12,18:10,0.713,1.018,0.673,1.251,0.883,0.400,0.701,0.662,�k�k��,2.3,��
2020/05/12,18:20,0.708,1.018,0.675,1.252,0.882,0.401,0.700,0.658,�k,2.0,��
2020/05/12,18:30,0.712,1.020,0.674,1.252,0.885,0.400,0.701,0.659,�k��,1.1,��
2020/05/12,18:40,0.709,1.019,0.674,1.253,0.886,0.401,0.701,0.661,�k�k��,1.5,��
2020/05/12,18:50,0.710,1.022,0.674,1.250,0.887,0.401,0.702,0.660,�k��,1.5,��
2020/05/12,19:00,0.711,1.018,0.673,1.253,0.882,0.401,0.702,0.663,���k��,0.9,��
2020/05/12,19:10,0.710,1.020,0.674,1.249,0.886,0.400,0.701,0.661,�k��,1.7,��
2020/05/12,19:20,0.713,1.019,0.674,1.249,0.885,0.399,0.701,0.661,�k�k��,2.3,��
2020/05/12,19:30,0.713,1.023,0.673,1.249,0.886,0.400,0.701,0.661,�k�k��,1.5,��
2020/05/12,19:40,0.711,1.022,0.672,1.250,0.884,0.401,0.700,0.660,�k�k��,2.8,��
2020/05/12,19:50,0.710,1.020,0.674,1.249,0.883,0.400,0.701,0.661,�k�k��,3.6,��
2020/05/12,20:00,0.712,1.022,0.674,1.251,0.884,0.398,0.701,0.661,�k,1.9,��
2020/05/12,20:10,0.711,1.021,0.672,1.251,0.885,0.401,0.702,0.661,�k�k��,3.3,��
2020/05/12,20:20,0.711,1.022,0.675,1.249,0.884,0.402,0.702,0.662,�k�k��,2.6,�L
2020/05/12,20:30,0.711,1.020,0.675,1.252,0.885,0.400,0.703,0.661,�k,2.5,��
2020/05/12,20:40,0.712,1.021,0.672,1.249,0.885,0.401,0.703,0.662,�k,3.5,��
2020/05/12,20:50,0.712,1.022,0.674,1.252,0.884,0.400,0.700,0.661,�k,3.8,��
2020/05/12,21:00,0.712,1.020,0.675,1.252,0.884,0.402,0.699,0.659,�k�k��,3.9,��
2020/05/12,21:10,0.711,1.020,0.674,1.252,0.883,0.400,0.700,0.659,�k,3.2,��
2020/05/12,21:20,0.711,1.021,0.674,1.249,0.883,0.399,0.700,0.660,�k�k��,4.2,��
2020/05/12,21:30,0.712,1.021,0.675,1.252,0.883,0.401,0.700,0.659,�k�k��,2.9,��
2020/05/12,21:40,0.712,1.019,0.673,1.251,0.883,0.401,0.701,0.659,�k�k��,1.7,��
2020/05/12,21:50,0.711,1.022,0.674,1.250,0.886,0.400,0.700,0.659,-,CALM,��
2020/05/12,22:00,0.713,1.019,0.674,1.250,0.884,0.401,0.702,0.661,-,CALM,��
2020/05/12,22:10,0.713,1.019,0.674,1.250,0.885,0.400,0.700,0.661,-,CALM,��
2020/05/12,22:20,0.711,1.021,0.672,1.250,0.885,0.401,0.701,0.660,-,CALM,��
2020/05/12,22:30,0.709,1.022,0.675,1.251,0.884,0.400,0.700,0.659,-,CALM,��
2020/05/12,22:40,0.710,1.021,0.674,1.250,0.884,0.401,0.698,0.660,��,0.9,��
2020/05/12,22:50,0.710,1.023,0.674,1.250,0.885,0.401,0.699,0.658,�k��,1.7,��
2020/05/12,23:00,0.709,1.021,0.673,1.249,0.883,0.400,0.701,0.659,�k�k��,1.2,��
2020/05/12,23:10,0.710,1.023,0.673,1.250,0.882,0.399,0.699,0.661,�k��,1.7,��
2020/05/12,23:20,0.712,1.022,0.673,1.251,0.886,0.399,0.699,0.660,�k,1.2,��
2020/05/12,23:30,0.711,1.020,0.675,1.253,0.886,0.400,0.701,0.660,�k��,1.1,��
2020/05/12,23:40,0.712,1.020,0.674,1.251,0.887,0.401,0.701,0.659,�k�k��,0.6,��
2020/05/12,23:50,0.712,1.021,0.673,1.248,0.884,0.401,0.700,0.660,-,CALM,��
